Regional Weather Roundup
Issued by NWS

Home | Current Version | Previous Version | Graphics & Text | Print | Product List | Glossary On
Versions: 1 2 3 4 5 6 7 8 9 10 11 12 13 14 15 16 17 18 19 20 21 22 23 24 25 26 27 28 29 30 31 32 33 34 35 36 37 38 39 40 41 42 43 44 45 46 47 48 49 50
000
ASUS43 KTOP 040208
RWRKS

WEATHER ROUNDUP FOR KANSAS
NATIONAL WEATHER SERVICE GOODLAND KS
900 PM CDT MON AUG 03 2015

NOTE:  "FAIR" INDICATES FEW OR NO CLOUDS BELOW 12,000 FEET WITH NO
SIGNIFICANT WEATHER AND/OR OBSTRUCTIONS TO VISIBILITY.

KSZ001>006-013>018-027>032-041>047-040300-
NORTHWEST KANSAS

CITY           SKY/WX    TMP DP  RH WIND       PRES   REMARKS
GOODLAND       CLOUDY    72  58  61 SE7       29.98F
HAYS           CLOUDY    84  64  51 S9        29.91S
HILL CITY      CLOUDY    84  67  56 SE6       29.91S
RUSSELL        MOCLDY    84  66  54 S8        29.90R
$$

KSZ061>065-074>080-084>089-040300-
SOUTHWEST KANSAS

CITY           SKY/WX    TMP DP  RH WIND       PRES   REMARKS
DODGE CITY     CLOUDY    79  63  57 SE9       29.95R
ELKHART          N/A     74  64  71 SE13        N/A
GARDEN CITY    CLOUDY    81  64  56 SE10      29.94F
GREAT BEND     MOCLDY    82  66  57 S9        29.91S
LIBERAL        CLOUDY    77  61  57 S17       29.95R
PRATT          MOCLDY    82  64  54 SE6       29.94S
$$

KSZ066>073-081>083-090>101-040300-
SOUTHEAST KANSAS

CITY           SKY/WX    TMP DP  RH WIND       PRES   REMARKS
CHANUTE        MOCLDY    80  67  64 S8        29.91S
COFFEYVILLE    PTCLDY    81  70  69 S6        29.91S
HUTCHINSON     PTCLDY    82  69  64 SE6       29.92R
MEDICINE LODGE   N/A     82  67  60 S7        29.91R
NEWTON         PTCLDY    82  66  57 S9        29.95S
PARSONS        PTCLDY    76  71  85 CALM      29.93R
WICHITA INTL   PTCLDY    84  70  62 SE9       29.91R
WICHITA JABRA  PTCLDY    83  70  64 S8        29.92R
WICHITA MCCONL PTCLDY    83  69  62 SE7       29.92R
$$

KSZ007>012-019>026-033>040-048>060-102>105-040300-
NORTHEAST KANSAS

CITY           SKY/WX    TMP DP  RH WIND       PRES   REMARKS
CONCORDIA      CLOUDY    80  74  81 E8        29.90R
EMPORIA        MOCLDY    82  71  69 S6        29.90R
LAWRENCE       MOCLDY    80  71  74 NE8       29.89R
MANHATTAN      MOCLDY    83  74  74 CALM      29.88R
MARYSVILLE     MOCLDY    77  72  83 E6        29.92S
OLATHE IND     PTCLDY    84  71  65 CALM      29.91R
OLATHE EXE     PTCLDY    83  74  74 E8        29.90R
SALINA         PTCLDY    86  70  58 S7        29.89R
TOPEKA BILLARD MOCLDY    83  75  77 NE13      29.89R
TOPEKA FORBES  MOCLDY    85  73  67 CALM      29.89S
$$


USA.gov is the U.S. government's official web portal to all federal, state and local government web resources and services.